This demonstration page uses our WeatherBlox Daily Observations layout. Learn more.

Left ArrowRight Arrow

Hourly Observations for August 8, 2018

Temp ( °F °C ) Dew Point ( °F °C ) Humidity (%) Winds ( mph kmh ) Pressure ( in mb ) Visibility ( mi km ) Precip ( " mm )
12:52 am 00:52 Mostly Clear 73 22.8 70 21.1 90 90 SSW 3 6 29.98 1015 10 16 0.00 0.00
1:52 am 01:52 Clear 73 22.8 69 20.6 87 87 N 3 6 29.96 1015 10 16 0.00 0.00
2:52 am 02:52 Clear 71 21.7 68 20 90 90 SSE 5 7 29.96 1015 7 11 0.00 0.00
3:52 am 03:52 Clear 71 21.7 69 20.6 94 94 S 5 7 29.96 1014 8 13 0.00 0.00
4:24 am 04:24 Mostly Cloudy 72 22.2 69 20.6 91 91 S 3 6 29.97 1015 10 16 0.00 0.00
4:52 am 04:52 Cloudy 72 22.2 69 20.6 91 91 Calm 29.94 1014 10 16 0.00 0.00
5:52 am 05:52 Mostly Cloudy 71 21.7 68 20 90 90 Calm 29.95 1014 10 16 0.00 0.00
5:59 am 05:59 Mostly Clear 71 21.7 68 20 90 90 Calm 29.97 1015 10 16 0.00 0.00
6:52 am 06:52 Partly Cloudy 69 20.6 67 19.4 93 93 S 5 7 29.98 1015 7 11 0.00 0.00
7:52 am 07:52 Sunny 74 23.3 69 20.6 85 85 Calm 29.98 1015 10 16 0.00 0.00
8:52 am 08:52 Sunny 77 25 69 20.6 77 77 Calm 30.00 1016 10 16 0.00 0.00
9:52 am 09:52 Sunny 80 26.7 71 21.7 74 74 Calm 29.99 1016 10 16 0.00 0.00
10:52 am 10:52 Partly Cloudy 83 28.3 70 21.1 65 65 W 5 7 30.00 1016 10 16 0.00 0.00
11:52 am 11:52 Mostly Cloudy 85 29.4 68 20 57 57 NW 6 9 29.99 1016 10 16 0.00 0.00
12:52 pm 12:52 Mostly Cloudy 86 30 68 20 55 55 Calm 29.98 1015 10 16 0.00 0.00
1:52 pm 13:52 Mostly Cloudy 88 31.1 67 19.4 50 50 WNW 7 11 29.96 1015 10 16 0.00 0.00
2:52 pm 14:52 Sunny 87 30.6 68 20 53 53 VRB 5 7 29.95 1014 10 16 0.00 0.00
3:52 pm 15:52 Sunny 90 32.2 66 18.9 45 45 VRB 3 6 29.92 1013 10 16 0.00 0.00
4:52 pm 16:52 Sunny 88 31.1 66 18.9 48 48 W 7 11 29.93 1014 10 16 0.00 0.00
5:49 pm 17:49 Mostly Cloudy with Nearby Thunderstorms 86 30 66 19 52 52 SW 12 19 29.88 1012 10 16 0.00 0.00
5:52 pm 17:52 Mostly Cloudy with Nearby Thunderstorms 86 30 66 18.9 51 51 SW 12 19 29.94 1014 10 16 0.00 0.00
6:28 pm 18:28 Mostly Cloudy with Thunderstorms 78 25.6 61 16.1 56 56 NNW 9 15 29.94 1014 9 14 0.00 0.03
6:34 pm 18:34 Cloudy with Strong Thunderstorms 73 22.8 65 18.3 76 76 ENE 14 22 30.00 1016 1 2 0.02 0.51
6:41 pm 18:41 Cloudy with Strong Thunderstorms 70 21.1 66 18.9 87 87 E 17 28 30.00 1016 1 1 0.46 11.68
6:47 pm 18:47 Cloudy with Strong Thunderstorms 72 22 66 19 83 83 E 17 28 30.00 1016 1 2 0.61 15.49
6:52 pm 18:52 Cloudy with Thunderstorms 71 21.7 68 20 90 90 ESE 15 24 29.98 1015 3 5 0.62 15.75
6:59 pm 18:59 Mostly Cloudy with Thunderstorms 72 22.2 67 19.4 84 84 ESE 15 24 29.97 1015 10 16 0.00 0.03
7:13 pm 19:13 Mostly Cloudy with Nearby Thunderstorms 71 21.7 68 20 90 90 S 13 20 29.97 1015 10 16 0.00 0.03
7:20 pm 19:20 Mostly Cloudy 71 21.7 66 18.9 84 84 SSE 10 17 29.97 1015 10 16 0.00 0.03
7:52 pm 19:52 Sunny 71 21.7 66 18.9 84 84 SE 5 7 29.96 1015 10 16 0.00 0.03
8:52 pm 20:52 Cloudy 72 22.2 65 18.3 79 79 ESE 7 11 29.98 1015 10 16 0.00 0.00
9:52 pm 21:52 Clear 72 22.2 66 18.9 82 82 S 3 6 29.99 1016 10 16 0.00 0.00
10:52 pm 22:52 Mostly Clear 72 22.2 67 19.4 84 84 SSW 3 6 29.99 1016 10 16 0.00 0.00
11:52 pm 23:52 Clear 71 21.7 66 18.9 84 84 Calm 29.99 1016 10 16 0.00 0.00

Powered by AerisWeather